Volver al catálogo

SL-16 DEB

ActivoLEO
NORAD 22331·DEBRIS·🇷🇺 Russia

Lanzado Dec 25, 1992 desde Baikonur Cosmodrome

Loading…

Próximos Pases (próximas 24 horas)

TLE

ActualizadoSource: Space-Track

Época: Sep 14, 2026, 12:11 UTC

1 22331U 92093U   26257.50775789  .00000003  00000-0  30096-4 0  9999
2 22331  70.9207 286.5355 0075616 160.6827 272.4360 14.05009811727624

Sigue SL-16 DEB en tiempo real con AllMySat

Download on the App Store